EW4784 Weather Reports


Display with metric or nautical units.
time (UTC)temp
F
wind
direction
speed
MPH
gust
MPH
rain 1hr
in
rain 24hr
in
rain mn
in
humidity
%
barometer
mb
20260509181750 69 285 16.0 42.0 0.00 0.00 0.00 46
20260509181250 69 300 15.0 39.0 0.00 0.00 0.00 46
20260509180748 71 279 18.0 30.0 0.00 0.00 0.00 45
20260509180247 70 278 15.0 41.0 0.00 0.00 0.00 48
20260509175746 67 261 13.0 34.0 0.00 0.00 0.00 50
20260509175245 67 253 13.0 33.0 0.00 0.00 0.00 50
20260509174744 67 245 17.0 39.0 0.00 0.00 0.00 49
20260509174243 68 249 15.0 37.0 0.00 0.00 0.00 49
20260509173742 69 257 19.0 36.0 0.00 0.00 0.00 48
20260509173241 69 261 13.0 26.0 0.00 0.00 0.00 49
20260509172740 69 278 16.0 39.0 0.00 0.00 0.00 48
20260509172238 69 248 17.0 42.0 0.00 0.00 0.00 48
20260509171738 69 249 13.0 32.0 0.00 0.00 0.00 49
20260509171237 69 236 14.0 36.0 0.00 0.00 0.00 49
20260509170735 69 239 16.0 31.0 0.00 0.00 0.00 48
20260509170235 70 230 12.0 33.0 0.00 0.00 0.00 49
20260509165734 70 251 10.0 24.0 0.00 0.00 0.00 48
20260509165233 69 282 10.0 25.0 0.00 0.00 0.00 53
20260509164732 69 226 12.0 21.0 0.00 0.00 0.00 51
20260509164252 69 273 13.0 27.0 0.00 0.00 0.00 52
20260509163729 69 230 15.0 35.0 0.00 0.00 0.00 53
20260509163228 68 241 12.0 26.0 0.00 0.00 0.00 56
20260509162727 67 225 13.0 27.0 0.00 0.00 0.00 56
20260509162227 66 233 10.0 18.0 0.00 0.00 0.00 58
20260509161746 66 226 10.0 18.0 0.00 0.00 0.00 57
20260509161225 67 246 14.0 29.0 0.00 0.00 0.00 55
20260509160723 67 216 11.0 32.0 0.00 0.00 0.00 57
20260509160223 65 221 8.0 20.0 0.00 0.00 0.00 60
20260509155743 64 229 10.0 19.0 0.00 0.00 0.00 60
20260509155220 65 238 14.0 36.0 0.00 0.00 0.00 57
20260509154720 67 242 11.0 24.0 0.00 0.00 0.00 57
20260509154219 66 224 13.0 30.0 0.00 0.00 0.00 58
20260509153717 65 224 15.0 29.0 0.00 0.00 0.00 60
20260509153216 64 211 12.0 35.0 0.00 0.00 0.00 63
20260509152715 63 220 11.0 26.0 0.00 0.00 0.00 65
20260509152214 63 212 10.0 23.0 0.00 0.00 0.00 64
20260509151714 63 226 10.0 21.0 0.00 0.00 0.00 63
20260509151213 63 238 12.0 29.0 0.00 0.00 0.00 64
20260509150711 64 223 9.0 21.0 0.00 0.00 0.00 65
20260509150210 64 212 12.0 25.0 0.00 0.00 0.00 65
20260509145709 63 209 10.0 17.0 0.00 0.00 0.00 68
20260509145209 62 227 9.0 22.0 0.00 0.00 0.00 70
20260509144708 61 215 10.0 21.0 0.00 0.00 0.00 70
20260509144206 61 226 9.0 20.0 0.00 0.00 0.00 71
20260509143705 61 223 11.0 28.0 0.00 0.00 0.00 71
20260509143225 60 210 12.0 25.0 0.00 0.00 0.00 74
20260509142703 59 207 10.0 17.0 0.00 0.00 0.00 76
20260509142224 60 213 9.0 19.0 0.00 0.00 0.00 75
20260509141701 60 210 10.0 22.0 0.00 0.00 0.00 76
20260509141200 59 215 11.0 22.0 0.00 0.00 0.00 76
20260509140659 58 205 12.0 21.0 0.00 0.00 0.00 78
20260509140222 58 197 12.0 27.0 0.00 0.00 0.00 80
20260509135657 57 221 9.0 16.0 0.00 0.00 0.00 81
20260509135156 57 210 10.0 17.0 0.00 0.00 0.00 83
20260509134655 56 203 11.0 18.0 0.00 0.00 0.00 84
20260509134215 56 218 9.0 17.0 0.00 0.00 0.00 85
20260509133715 55 225 7.0 19.0 0.00 0.00 0.00 86
20260509133152 55 245 6.0 15.0 0.00 0.00 0.00 87
20260509132651 55 210 8.0 18.0 0.00 0.00 0.00 89
20260509132211 54 232 6.0 15.0 0.00 0.00 0.00 91
20260509131649 54 232 6.0 13.0 0.00 0.00 0.00 92
20260509131149 53 235 7.0 15.0 0.00 0.00 0.00 93
20260509130647 53 220 11.0 20.0 0.00 0.00 0.00 94
20260509130146 52 229 7.0 13.0 0.00 0.00 0.00 94
20260509125645 52 216 7.0 18.0 0.00 0.00 0.00 95
20260509125205 52 209 7.0 14.0 0.00 0.00 0.00 96
20260509124643 51 208 10.0 22.0 0.00 0.00 0.00 96
20260509124142 51 235 7.0 18.0 0.00 0.00 0.00 96
20260509123641 51 224 6.0 15.0 0.00 0.00 0.00 96
20260509123140 51 216 7.0 18.0 0.00 0.00 0.00 96
20260509122639 51 201 6.0 12.0 0.00 0.00 0.00 97
20260509122138 50 217 4.0 11.0 0.00 0.00 0.00 97
20260509121637 50 225 6.0 15.0 0.00 0.00 0.00 97
20260509121157 50 212 6.0 13.0 0.00 0.00 0.00 97
20260509120635 50 221 2.0 10.0 0.00 0.00 0.00 97
20260509120134 50 219 7.0 13.0 0.00 0.00 0.00 97
20260509115633 50 202 7.0 13.0 0.00 0.00 0.00 97
20260509115153 50 208 6.0 15.0 0.00 0.00 0.00 97
20260509114631 50 208 5.0 11.0 0.00 0.00 0.00 97
20260509114130 49 199 7.0 16.0 0.00 0.00 0.00 97
20260509113650 49 204 7.0 19.0 0.00 0.00 0.00 97
20260509113128 49 208 6.0 12.0 0.00 0.00 0.00 97
20260509112627 49 217 4.0 10.0 0.00 0.00 0.00 97
20260509112126 48 212 6.0 11.0 0.00 0.00 0.00 97
20260509111625 48 223 3.0 11.0 0.00 0.00 0.00 97
20260509111124 48 221 5.0 10.0 0.00 0.00 0.00 97
20260509110623 48 231 2.0 6.0 0.00 0.00 0.00 97
20260509110122 48 249 3.0 12.0 0.00 0.00 0.00 97
20260509105621 47 234 1.0 5.0 0.00 0.00 0.00 97
20260509105120 47 228 2.0 8.0 0.00 0.00 0.00 96
20260509104619 47 230 1.0 5.0 0.00 0.00 0.00 96
20260509104120 47 220 0.0 3.0 0.00 0.00 0.00 96
20260509103638 47 255 1.0 4.0 0.00 0.00 0.00 96
20260509103137 47 257 2.0 6.0 0.00 0.00 0.00 96
20260509102615 47 254 1.0 6.0 0.00 0.00 0.00 96
20260509102114 47 253 0.0 4.0 0.00 0.00 0.00 96
20260509101613 47 261 2.0 6.0 0.00 0.00 0.00 96
20260509101112 47 258 1.0 5.0 0.00 0.00 0.00 95
20260509100611 47 266 1.0 5.0 0.00 0.00 0.00 95
20260509100110 47 262 1.0 4.0 0.00 0.00 0.00 95
20260509095609 47 265 1.0 7.0 0.00 0.00 0.00 95
20260509095108 48 275 1.0 7.0 0.00 0.00 0.00 95
20260509094628 48 285 1.0 4.0 0.00 0.00 0.00 95
20260509094106 48 256 2.0 5.0 0.00 0.00 0.00 95
20260509093605 48 254 1.0 5.0 0.00 0.00 0.00 95
20260509093103 48 253 1.0 3.0 0.00 0.00 0.00 95
20260509092603 48 275 1.0 5.0 0.00 0.00 0.00 95
20260509092102 48 271 1.0 6.0 0.00 0.00 0.00 95
20260509091622 48 273 0.0 4.0 0.00 0.00 0.00 95
20260509091100 48 262 2.0 6.0 0.00 0.00 0.00 94
20260509090558 48 247 0.0 3.0 0.00 0.00 0.00 94
20260509090058 48 199 0.0 2.0 0.00 0.00 0.00 94
20260509085557 48 237 0.0 3.0 0.00 0.00 0.00 94
20260509085116 48 267 0.0 4.0 0.00 0.00 0.00 94
20260509084616 48 269 1.0 5.0 0.00 0.00 0.00 93
20260509084054 48 254 1.0 6.0 0.00 0.00 0.00 93
20260509083552 48 250 0.0 5.0 0.00 0.00 0.00 93
20260509083051 48 268 0.0 4.0 0.00 0.00 0.00 93
20260509082550 48 243 1.0 6.0 0.00 0.00 0.00 93
20260509082050 47 276 3.0 6.0 0.00 0.00 0.00 93
20260509081549 47 252 2.0 6.0 0.00 0.00 0.00 92
20260509081047 47 280 0.0 0.0 0.00 0.00 0.00 92
20260509080546 47 270 2.0 9.0 0.00 0.00 0.00 92
20260509080046 47 268 1.0 6.0 0.00 0.00 0.00 91
20260509075545 47 277 0.0 4.0 0.00 0.00 0.00 90
20260509075044 47 283 0.0 2.0 0.00 0.00 0.00 90
20260509074543 47 314 0.0 2.0 0.00 0.00 0.00 89
20260509074042 47 330 0.0 0.0 0.00 0.00 0.00 89
20260509073602 47 293 1.0 4.0 0.00 0.00 0.00 88
20260509073101 48 283 1.0 4.0 0.00 0.00 0.00 89
20260509072538 47 269 0.0 4.0 0.00 0.00 0.00 88
20260509072038 47 262 1.0 6.0 0.00 0.00 0.00 88
20260509071536 47 260 0.0 3.0 0.00 0.00 0.00 87
20260509071036 48 263 0.0 6.0 0.00 0.00 0.00 86
20260509070535 48 270 1.0 6.0 0.00 0.00 0.00 86
20260509070034 48 273 0.0 2.0 0.00 0.00 0.00 85
20260509065533 48 270 0.0 3.0 0.00 0.00 0.00 85
20260509065031 48 271 0.0 3.0 0.00 0.00 0.00 85
20260509064530 48 267 1.0 7.0 0.00 0.00 0.00 84
20260509064029 48 248 1.0 6.0 0.00 0.00 0.00 84
20260509063528 48 253 1.0 5.0 0.00 0.00 0.00 84
20260509063048 48 266 2.0 10.0 0.00 0.00 0.00 85
20260509062548 48 248 2.0 8.0 0.00 0.00 0.00 86
20260509062025 48 251 1.0 5.0 0.00 0.00 0.00 87
20260509061524 48 258 1.0 4.0 0.00 0.00 0.00 87
20260509061023 48 270 0.0 2.0 0.00 0.00 0.00 86
20260509060522 48 271 0.0 3.0 0.00 0.00 0.00 87
20260509060021 48 257 1.0 5.0 0.00 0.00 0.00 87
20260509055520 49 264 1.0 4.0 0.00 0.00 0.00 87
20260509055019 49 253 0.0 4.0 0.00 0.00 0.00 86
20260509054518 49 251 1.0 4.0 0.00 0.00 0.00 86
20260509054017 49 267 1.0 4.0 0.00 0.00 0.00 87
20260509053516 49 267 0.0 4.0 0.00 0.00 0.00 86
20260509053015 50 262 1.0 3.0 0.00 0.00 0.00 86
20260509052514 50 244 1.0 5.0 0.00 0.00 0.00 86
20260509052013 50 247 1.0 4.0 0.00 0.00 0.00 85
20260509051512 50 252 0.0 4.0 0.00 0.00 0.00 85
20260509051011 50 258 1.0 4.0 0.00 0.00 0.00 85
20260509050510 50 264 1.0 6.0 0.00 0.00 0.00 84
20260509050009 50 265 1.0 5.0 0.00 0.00 0.00 84
20260509045508 50 265 2.0 9.0 0.00 0.00 0.00 84
20260509045007 50 265 1.0 7.0 0.00 0.00 0.00 83
20260509044507 50 257 1.0 4.0 0.00 0.00 0.00 84
20260509044005 50 255 1.0 5.0 0.00 0.00 0.00 84
20260509043525 49 247 1.0 5.0 0.00 0.00 0.00 83
20260509043003 49 265 1.0 4.0 0.00 0.01 0.00 84
20260509042502 49 267 0.0 1.0 0.00 0.01 0.00 84
20260509042001 49 267 0.0 0.0 0.00 0.01 0.00 83
20260509041500 49 268 0.0 3.0 0.00 0.01 0.00 81
20260509041020 50 266 0.0 3.0 0.00 0.01 0.00 80
20260509040458 51 267 1.0 3.0 0.00 0.02 0.00 80
20260509040018 51 270 1.0 4.0 0.00 0.03 0.03 79
20260509035517 51 279 1.0 4.0 0.00 0.04 0.03 78
20260509034955 51 251 1.0 5.0 0.00 0.04 0.03 78
20260509034515 51 246 1.0 5.0 0.00 0.04 0.03 78
20260509033953 51 233 2.0 4.0 0.00 0.04 0.03 78
20260509033452 50 249 0.0 4.0 0.00 0.04 0.03 78
20260509032951 50 247 1.0 3.0 0.00 0.04 0.03 78
20260509032511 50 3 0.0 2.0 0.00 0.04 0.03 76
20260509031949 50 11 0.0 2.0 0.00 0.04 0.03 76
20260509031449 50 11 0.0 0.0 0.00 0.04 0.03 76
20260509031008 51 11 0.0 2.0 0.00 0.04 0.03 75
20260509030446 51 11 0.0 0.0 0.00 0.04 0.03 75
20260509030006 52 11 0.0 0.0 0.00 0.04 0.03 74
20260509025444 52 11 0.0 0.0 0.00 0.04 0.03 72
20260509024943 52 11 0.0 2.0 0.00 0.04 0.03 70
20260509024442 52 11 0.0 0.0 0.00 0.04 0.03 69
20260509023941 53 11 0.0 0.0 0.00 0.04 0.03 69
20260509023440 53 350 2.0 7.0 0.00 0.04 0.03 68
20260509022939 54 298 0.0 4.0 0.00 0.04 0.03 67
20260509022459 54 285 0.0 3.0 0.00 0.04 0.03 67
20260509021937 54 278 1.0 6.0 0.00 0.04 0.03 67
20260509021436 54 358 0.0 2.0 0.00 0.04 0.03 66
20260509020935 54 327 1.0 4.0 0.00 0.04 0.03 65
20260509020434 54 315 2.0 7.0 0.00 0.04 0.03 63
20260509015933 55 315 1.0 10.0 0.00 0.04 0.03 61
20260509015432 55 316 2.0 8.0 0.00 0.04 0.03 60
20260509014931 56 285 1.0 6.0 0.00 0.04 0.03 57
20260509014430 56 282 1.0 7.0 0.00 0.04 0.03 54
20260509013930 56 280 1.0 4.0 0.00 0.04 0.03 53
20260509013449 57 267 1.0 4.0 0.00 0.04 0.03 52
20260509012927 56 257 3.0 8.0 0.00 0.04 0.03 52
20260509012426 56 253 2.0 7.0 0.00 0.04 0.03 50
20260509011925 56 233 1.0 5.0 0.00 0.04 0.03 51
20260509011424 56 290 0.0 0.0 0.00 0.04 0.03 49
20260509010923 57 290 0.0 0.0 0.00 0.04 0.03 49
20260509010422 57 290 0.0 3.0 0.00 0.04 0.03 46
20260509005921 58 290 0.0 1.0 0.00 0.04 0.03 43
20260509005419 58 304 1.0 6.0 0.00 0.04 0.03 42
20260509004918 58 287 2.0 10.0 0.00 0.04 0.03 41
20260509004439 59 269 1.0 7.0 0.00 0.04 0.03 41
20260509003917 59 270 2.0 6.0 0.00 0.04 0.03 40
20260509003416 60 283 0.0 5.0 0.00 0.04 0.03 39
20260509002915 60 298 0.0 3.0 0.00 0.04 0.03 39
20260509002413 61 285 4.0 11.0 0.00 0.04 0.03 38
20260509001913 61 286 4.0 8.0 0.00 0.04 0.03 38
20260509001412 61 291 3.0 13.0 0.00 0.04 0.03 39
20260509000931 61 301 3.0 9.0 0.00 0.04 0.03 39
20260509000410 61 270 0.0 3.0 0.00 0.04 0.03 38
20260508235908 62 283 3.0 11.0 0.00 0.04 0.03 37
20260508235407 62 262 1.0 4.0 0.00 0.04 0.03 37
20260508234907 62 263 4.0 12.0 0.00 0.04 0.03 37
20260508234405 62 272 8.0 18.0 0.00 0.04 0.03 36
20260508233905 62 289 8.0 16.0 0.00 0.04 0.03 36
20260508233404 62 272 5.0 18.0 0.00 0.04 0.03 37
20260508232902 63 291 6.0 13.0 0.00 0.04 0.03 37
20260508232402 63 268 3.0 9.0 0.00 0.04 0.03 37
20260508231900 63 302 6.0 16.0 0.00 0.04 0.03 37
20260508231400 63 309 6.0 15.0 0.00 0.04 0.03 37
20260508230858 64 245 5.0 11.0 0.00 0.04 0.03 36
20260508230357 65 265 5.0 11.0 0.00 0.04 0.03 34
20260508225856 65 267 6.0 12.0 0.00 0.04 0.03 34
20260508225355 65 253 3.0 11.0 0.00 0.04 0.03 36
20260508224854 65 285 4.0 15.0 0.00 0.04 0.03 35
20260508224415 64 277 5.0 17.0 0.00 0.04 0.03 36
20260508223853 62 222 5.0 10.0 0.00 0.04 0.03 36
20260508223351 62 203 6.0 10.0 0.00 0.04 0.03 36
20260508222851 63 248 9.0 24.0 0.00 0.04 0.03 35
20260508222349 63 244 6.0 15.0 0.00 0.04 0.03 37
20260508221909 63 251 9.0 20.0 0.00 0.04 0.03 35
20260508221348 64 233 4.0 9.0 0.00 0.04 0.03 34
20260508220846 64 211 6.0 14.0 0.00 0.04 0.03 33
20260508220345 65 243 2.0 7.0 0.00 0.04 0.03 33
20260508215845 65 279 6.0 13.0 0.00 0.04 0.03 33
20260508215343 64 281 7.0 16.0 0.00 0.04 0.03 33
20260508214842 66 319 9.0 19.0 0.00 0.04 0.03 32
20260508214402 66 274 3.0 10.0 0.00 0.04 0.03 31
20260508213840 65 255 9.0 17.0 0.00 0.04 0.03 33
20260508213340 63 208 11.0 19.0 0.00 0.04 0.03 33
20260508212838 64 248 8.0 25.0 0.00 0.04 0.03 34
20260508212337 64 203 8.0 24.0 0.00 0.04 0.03 34
20260508211836 63 217 5.0 13.0 0.00 0.04 0.03 35
20260508211335 63 250 9.0 21.0 0.00 0.04 0.03 34
20260508210834 64 241 9.0 20.0 0.00 0.04 0.03 34
20260508210333 65 226 9.0 21.0 0.00 0.04 0.03 33
20260508205832 66 251 3.0 8.0 0.00 0.04 0.03 34
20260508205353 65 282 5.0 16.0 0.00 0.04 0.03 34
20260508204831 65 312 7.0 16.0 0.00 0.04 0.03 35
20260508204350 65 298 12.0 24.0 0.00 0.04 0.03 33
20260508203828 65 284 11.0 24.0 0.00 0.04 0.03 34
20260508203328 65 276 8.0 15.0 0.00 0.04 0.03 35
20260508202826 65 323 12.0 25.0 0.00 0.04 0.03 35
20260508202346 64 204 7.0 16.0 0.00 0.04 0.03 36
20260508201845 63 238 8.0 18.0 0.00 0.04 0.03 36
20260508201323 64 263 8.0 13.0 0.00 0.04 0.03 34
20260508200822 66 277 10.0 17.0 0.00 0.04 0.03 35
20260508200342 65 250 12.0 27.0 0.00 0.04 0.03 35
20260508195842 65 247 8.0 20.0 0.00 0.04 0.03 35
20260508195319 64 206 8.0 16.0 0.00 0.04 0.03 35
20260508194818 64 209 9.0 20.0 0.00 0.04 0.03 34
20260508194317 65 332 10.0 22.0 0.00 0.04 0.03 33
20260508193816 65 304 12.0 23.0 0.00 0.04 0.03 32
20260508193315 65 255 9.0 28.0 0.00 0.04 0.03 32
20260508192835 65 311 10.0 20.0 0.00 0.04 0.03 32
20260508192313 64 302 8.0 19.0 0.00 0.04 0.03 32
20260508191833 64 204 9.0 19.0 0.00 0.04 0.03 33
20260508191332 64 237 7.0 25.0 0.00 0.04 0.03 33
20260508190810 65 136 6.0 16.0 0.00 0.04 0.03 33
20260508190309 64 240 4.0 10.0 0.00 0.04 0.03 33
20260508185808 65 316 9.0 17.0 0.00 0.04 0.03 32
20260508185307 66 325 13.0 27.0 0.00 0.04 0.03 34
20260508184806 64 311 8.0 18.0 0.00 0.04 0.03 35
20260508184305 64 154 3.0 8.0 0.00 0.04 0.03 35
20260508183804 63 212 6.0 13.0 0.00 0.04 0.03 34
20260508183303 64 233 8.0 22.0 0.00 0.04 0.03 33
20260508182802 65 208 6.0 14.0 0.00 0.04 0.03 33
20260508182301 65 341 10.0 18.0 0.00 0.04 0.03 33